owner,sensor,date,latitude,longitude,vertical_datum,sea_water_practical_salinity,qcFlag 
NERRS,ioos:station:NOAA.NERRS:wkbfrwq:1,2014-08-01T00:45:00Z,30.4162,-87.8228,2.09,6.0,1111122 
NERRS,ioos:station:NOAA.NERRS:wkbfrwq:1,2014-08-01T01:45:00Z,30.4162,-87.8228,2.05,6.5,1111122 
NERRS,ioos:station:NOAA.NERRS:wkbfrwq:1,2014-08-01T02:45:00Z,30.4162,-87.8228,2.03,6.5,1111122 
NERRS,ioos:station:NOAA.NERRS:wkbfrwq:1,2014-08-01T03:45:00Z,30.4162,-87.8228,2.01,6.6,1111122 
NERRS,ioos:station:NOAA.NERRS:wkbfrwq:1,2014-08-01T04:45:00Z,30.4162,-87.8228,2.0,6.8,1111122 
NERRS,ioos:station:NOAA.NERRS:wkbfrwq:1,2014-08-01T06:45:00Z,30.4162,-87.8228,2.08,6.6,1111122 
NERRS,ioos:station:NOAA.NERRS:wkbfrwq:1,2014-08-01T07:45:00Z,30.4162,-87.8228,2.12,6.6,1111122 
NERRS,ioos:station:NOAA.NERRS:wkbfrwq:1,2014-08-01T08:45:00Z,30.4162,-87.8228,2.13,6.6,1111122 
NERRS,ioos:station:NOAA.NERRS:wkbfrwq:1,2014-08-01T09:45:00Z,30.4162,-87.8228,2.12,6.6,1111122 
NERRS,ioos:station:NOAA.NERRS:wkbfrwq:1,2014-08-01T10:45:00Z,30.4162,-87.8228,2.14,6.6,1111122 
NERRS,ioos:station:NOAA.NERRS:wkbfrwq:1,2014-08-01T11:45:00Z,30.4162,-87.8228,2.13,6.7,1111122 
NERRS,ioos:station:NOAA.NERRS:wkbfrwq:1,2014-08-01T12:45:00Z,30.4162,-87.8228,2.11,6.7,1111122 
NERRS,ioos:station:NOAA.NERRS:wkbfrwq:1,2014-08-01T13:45:00Z,30.4162,-87.8228,2.11,6.7,1111122 
NERRS,ioos:station:NOAA.NERRS:wkbfrwq:1,2014-08-01T14:45:00Z,30.4162,-87.8228,2.13,6.9,1111122 
NERRS,ioos:station:NOAA.NERRS:wkbfrwq:1,2014-08-01T15:45:00Z,30.4162,-87.8228,2.15,7.0,1111122 
NERRS,ioos:station:NOAA.NERRS:wkbfrwq:1,2014-08-01T16:45:00Z,30.4162,-87.8228,2.14,7.0,1111122 
NERRS,ioos:station:NOAA.NERRS:wkbfrwq:1,2014-08-01T17:45:00Z,30.4162,-87.8228,2.13,7.0,1111122 
NERRS,ioos:station:NOAA.NERRS:wkbfrwq:1,2014-08-01T18:45:00Z,30.4162,-87.8228,2.15,7.0,1111122 
NERRS,ioos:station:NOAA.NERRS:wkbfrwq:1,2014-08-01T19:45:00Z,30.4162,-87.8228,2.16,6.9,1111122 
NERRS,ioos:station:NOAA.NERRS:wkbfrwq:1,2014-08-01T20:45:00Z,30.4162,-87.8228,2.15,6.9,1111122 
NERRS,ioos:station:NOAA.NERRS:wkbfrwq:1,2014-08-01T21:45:00Z,30.4162,-87.8228,2.13,6.9,1111122 
NERRS,ioos:station:NOAA.NERRS:wkbfrwq:1,2014-08-01T23:45:00Z,30.4162,-87.8228,2.07,7.0,1111122 
NERRS,ioos:station:NOAA.NERRS:wkbfrwq:1,2014-08-02T00:45:00Z,30.4162,-87.8228,2.05,6.7,1111122 
NERRS,ioos:station:NOAA.NERRS:wkbfrwq:1,2014-08-02T02:45:00Z,30.4162,-87.8228,2.0,6.8,1111122 
NERRS,ioos:station:NOAA.NERRS:wkbfrwq:1,2014-08-02T03:45:00Z,30.4162,-87.8228,2.04,6.8,1111122 
NERRS,ioos:station:NOAA.NERRS:wkbfrwq:1,2014-08-02T04:45:00Z,30.4162,-87.8228,2.09,6.0,1111122 
NERRS,ioos:station:NOAA.NERRS:wkbfrwq:1,2014-08-02T05:45:00Z,30.4162,-87.8228,2.13,5.9,1111122 
NERRS,ioos:station:NOAA.NERRS:wkbfrwq:1,2014-08-02T07:45:00Z,30.4162,-87.8228,2.17,6.1,1111122 
NERRS,ioos:station:NOAA.NERRS:wkbfrwq:1,2014-08-02T08:45:00Z,30.4162,-87.8228,2.2,6.0,1111122 
NERRS,ioos:station:NOAA.NERRS:wkbfrwq:1,2014-08-02T09:45:00Z,30.4162,-87.8228,2.21,6.0,1111122 
NERRS,ioos:station:NOAA.NERRS:wkbfrwq:1,2014-08-02T10:45:00Z,30.4162,-87.8228,2.22,6.1,1111122 
NERRS,ioos:station:NOAA.NERRS:wkbfrwq:1,2014-08-02T11:45:00Z,30.4162,-87.8228,2.21,6.2,1111122 
NERRS,ioos:station:NOAA.NERRS:wkbfrwq:1,2014-08-02T12:45:00Z,30.4162,-87.8228,2.18,6.4,1111122 
NERRS,ioos:station:NOAA.NERRS:wkbfrwq:1,2014-08-02T13:45:00Z,30.4162,-87.8228,2.15,6.2,1111122 
NERRS,ioos:station:NOAA.NERRS:wkbfrwq:1,2014-08-02T14:45:00Z,30.4162,-87.8228,2.13,6.2,1111122 
NERRS,ioos:station:NOAA.NERRS:wkbfrwq:1,2014-08-02T15:45:00Z,30.4162,-87.8228,2.11,6.4,1111122 
NERRS,ioos:station:NOAA.NERRS:wkbfrwq:1,2014-08-02T16:45:00Z,30.4162,-87.8228,2.09,6.5,1111122 
NERRS,ioos:station:NOAA.NERRS:wkbfrwq:1,2014-08-02T17:45:00Z,30.4162,-87.8228,2.1,6.5,1111122 
NERRS,ioos:station:NOAA.NERRS:wkbfrwq:1,2014-08-02T18:45:00Z,30.4162,-87.8228,2.1,6.3,1111122 
NERRS,ioos:station:NOAA.NERRS:wkbfrwq:1,2014-08-02T19:45:00Z,30.4162,-87.8228,2.09,5.8,1111122 
NERRS,ioos:station:NOAA.NERRS:wkbfrwq:1,2014-08-02T20:45:00Z,30.4162,-87.8228,2.1,5.7,1111122 
NERRS,ioos:station:NOAA.NERRS:wkbfrwq:1,2014-08-02T21:45:00Z,30.4162,-87.8228,2.12,5.6,1111122 
NERRS,ioos:station:NOAA.NERRS:wkbfrwq:1,2014-08-02T22:45:00Z,30.4162,-87.8228,2.11,5.1,1111122 
NERRS,ioos:station:NOAA.NERRS:wkbfrwq:1,2014-08-02T23:45:00Z,30.4162,-87.8228,2.09,5.5,1111122 
NERRS,ioos:station:NOAA.NERRS:wkbfrwq:1,2014-08-03T00:45:00Z,30.4162,-87.8228,2.1,5.7,1111122 
NERRS,ioos:station:NOAA.NERRS:wkbfrwq:1,2014-08-03T01:45:00Z,30.4162,-87.8228,2.12,5.9,1111122 
NERRS,ioos:station:NOAA.NERRS:wkbfrwq:1,2014-08-03T02:45:00Z,30.4162,-87.8228,2.13,5.6,1111122 
NERRS,ioos:station:NOAA.NERRS:wkbfrwq:1,2014-08-03T03:45:00Z,30.4162,-87.8228,2.15,5.4,1111122 
NERRS,ioos:station:NOAA.NERRS:wkbfrwq:1,2014-08-03T04:45:00Z,30.4162,-87.8228,2.15,5.6,1111122 
NERRS,ioos:station:NOAA.NERRS:wkbfrwq:1,2014-08-03T06:45:00Z,30.4162,-87.8228,2.19,5.6,1111122 
NERRS,ioos:station:NOAA.NERRS:wkbfrwq:1,2014-08-03T07:45:00Z,30.4162,-87.8228,2.24,6.0,1111122 
NERRS,ioos:station:NOAA.NERRS:wkbfrwq:1,2014-08-03T08:45:00Z,30.4162,-87.8228,2.28,5.7,1111122 
NERRS,ioos:station:NOAA.NERRS:wkbfrwq:1,2014-08-03T09:45:00Z,30.4162,-87.8228,2.25,5.9,1111122 
NERRS,ioos:station:NOAA.NERRS:wkbfrwq:1,2014-08-03T10:45:00Z,30.4162,-87.8228,2.22,5.6,1111122 
NERRS,ioos:station:NOAA.NERRS:wkbfrwq:1,2014-08-03T11:45:00Z,30.4162,-87.8228,2.21,6.0,1111122 
NERRS,ioos:station:NOAA.NERRS:wkbfrwq:1,2014-08-03T12:45:00Z,30.4162,-87.8228,2.2,6.2,1111122 
NERRS,ioos:station:NOAA.NERRS:wkbfrwq:1,2014-08-03T13:45:00Z,30.4162,-87.8228,2.2,6.4,1111122 
NERRS,ioos:station:NOAA.NERRS:wkbfrwq:1,2014-08-03T14:45:00Z,30.4162,-87.8228,2.18,6.3,1111122 
NERRS,ioos:station:NOAA.NERRS:wkbfrwq:1,2014-08-03T15:45:00Z,30.4162,-87.8228,2.13,5.8,1111122 
NERRS,ioos:station:NOAA.NERRS:wkbfrwq:1,2014-08-03T17:45:00Z,30.4162,-87.8228,2.08,6.0,1111122 
NERRS,ioos:station:NOAA.NERRS:wkbfrwq:1,2014-08-03T18:45:00Z,30.4162,-87.8228,2.07,6.1,1111122 
NERRS,ioos:station:NOAA.NERRS:wkbfrwq:1,2014-08-03T20:45:00Z,30.4162,-87.8228,2.04,5.4,1111122 
NERRS,ioos:station:NOAA.NERRS:wkbfrwq:1,2014-08-03T21:45:00Z,30.4162,-87.8228,2.04,5.8,1111122 
NERRS,ioos:station:NOAA.NERRS:wkbfrwq:1,2014-08-03T22:45:00Z,30.4162,-87.8228,2.06,5.7,1111122 
NERRS,ioos:station:NOAA.NERRS:wkbfrwq:1,2014-08-03T23:45:00Z,30.4162,-87.8228,2.06,5.6,1111122 
NERRS,ioos:station:NOAA.NERRS:wkbfrwq:1,2014-08-04T00:45:00Z,30.4162,-87.8228,2.08,5.6,1111122 
NERRS,ioos:station:NOAA.NERRS:wkbfrwq:1,2014-08-04T01:45:00Z,30.4162,-87.8228,2.1,5.4,1111122 
NERRS,ioos:station:NOAA.NERRS:wkbfrwq:1,2014-08-04T02:45:00Z,30.4162,-87.8228,2.13,5.2,1111122 
NERRS,ioos:station:NOAA.NERRS:wkbfrwq:1,2014-08-04T03:45:00Z,30.4162,-87.8228,2.14,5.3,1111122 
NERRS,ioos:station:NOAA.NERRS:wkbfrwq:1,2014-08-04T04:45:00Z,30.4162,-87.8228,2.14,5.3,1111122 
NERRS,ioos:station:NOAA.NERRS:wkbfrwq:1,2014-08-04T06:45:00Z,30.4162,-87.8228,2.25,5.1,1111122 
NERRS,ioos:station:NOAA.NERRS:wkbfrwq:1,2014-08-04T07:45:00Z,30.4162,-87.8228,2.27,5.1,1111122 
NERRS,ioos:station:NOAA.NERRS:wkbfrwq:1,2014-08-04T08:45:00Z,30.4162,-87.8228,2.3,5.8,1111122 
NERRS,ioos:station:NOAA.NERRS:wkbfrwq:1,2014-08-04T09:45:00Z,30.4162,-87.8228,2.31,5.9,1111122 
NERRS,ioos:station:NOAA.NERRS:wkbfrwq:1,2014-08-04T10:45:00Z,30.4162,-87.8228,2.32,6.1,1111122 
NERRS,ioos:station:NOAA.NERRS:wkbfrwq:1,2014-08-04T11:45:00Z,30.4162,-87.8228,2.29,6.2,1111122 
NERRS,ioos:station:NOAA.NERRS:wkbfrwq:1,2014-08-04T12:45:00Z,30.4162,-87.8228,2.26,6.0,1111122 
NERRS,ioos:station:NOAA.NERRS:wkbfrwq:1,2014-08-04T13:45:00Z,30.4162,-87.8228,2.25,6.0,1111122 
NERRS,ioos:station:NOAA.NERRS:wkbfrwq:1,2014-08-04T14:45:00Z,30.4162,-87.8228,2.24,6.2,1111122 
NERRS,ioos:station:NOAA.NERRS:wkbfrwq:1,2014-08-04T15:45:00Z,30.4162,-87.8228,2.2,5.7,1111122 
NERRS,ioos:station:NOAA.NERRS:wkbfrwq:1,2014-08-04T16:45:00Z,30.4162,-87.8228,2.14,5.2,1111122 
NERRS,ioos:station:NOAA.NERRS:wkbfrwq:1,2014-08-04T17:45:00Z,30.4162,-87.8228,2.08,5.6,1111122 
NERRS,ioos:station:NOAA.NERRS:wkbfrwq:1,2014-08-04T18:45:00Z,30.4162,-87.8228,2.05,5.6,1111122 
NERRS,ioos:station:NOAA.NERRS:wkbfrwq:1,2014-08-04T19:45:00Z,30.4162,-87.8228,2.02,5.5,1111122 
NERRS,ioos:station:NOAA.NERRS:wkbfrwq:1,2014-08-04T20:45:00Z,30.4162,-87.8228,1.97,4.9,1111122 
NERRS,ioos:station:NOAA.NERRS:wkbfrwq:1,2014-08-04T21:45:00Z,30.4162,-87.8228,1.96,5.8,1111122 
NERRS,ioos:station:NOAA.NERRS:wkbfrwq:1,2014-08-04T22:45:00Z,30.4162,-87.8228,1.97,5.9,1111122 
NERRS,ioos:station:NOAA.NERRS:wkbfrwq:1,2014-08-04T23:45:00Z,30.4162,-87.8228,2.03,5.6,1111122 
NERRS,ioos:station:NOAA.NERRS:wkbfrwq:1,2014-08-05T00:45:00Z,30.4162,-87.8228,2.04,5.6,1111122 
NERRS,ioos:station:NOAA.NERRS:wkbfrwq:1,2014-08-05T01:45:00Z,30.4162,-87.8228,2.05,5.5,1111122 
NERRS,ioos:station:NOAA.NERRS:wkbfrwq:1,2014-08-05T02:45:00Z,30.4162,-87.8228,2.11,5.7,1111122 
NERRS,ioos:station:NOAA.NERRS:wkbfrwq:1,2014-08-05T03:45:00Z,30.4162,-87.8228,2.16,5.1,1111122 
NERRS,ioos:station:NOAA.NERRS:wkbfrwq:1,2014-08-05T04:45:00Z,30.4162,-87.8228,2.19,5.2,1111122 
NERRS,ioos:station:NOAA.NERRS:wkbfrwq:1,2014-08-05T06:45:00Z,30.4162,-87.8228,2.28,5.3,1111122 
NERRS,ioos:station:NOAA.NERRS:wkbfrwq:1,2014-08-05T07:45:00Z,30.4162,-87.8228,2.33,5.1,1111122 
NERRS,ioos:station:NOAA.NERRS:wkbfrwq:1,2014-08-05T08:45:00Z,30.4162,-87.8228,2.37,5.3,1111122 
NERRS,ioos:station:NOAA.NERRS:wkbfrwq:1,2014-08-05T09:45:00Z,30.4162,-87.8228,2.4,5.5,1111122 
NERRS,ioos:station:NOAA.NERRS:wkbfrwq:1,2014-08-05T10:45:00Z,30.4162,-87.8228,2.44,5.7,1111122 
NERRS,ioos:station:NOAA.NERRS:wkbfrwq:1,2014-08-05T11:45:00Z,30.4162,-87.8228,2.45,6.0,1111122 
NERRS,ioos:station:NOAA.NERRS:wkbfrwq:1,2014-08-05T12:45:00Z,30.4162,-87.8228,2.43,5.8,1111122 
NERRS,ioos:station:NOAA.NERRS:wkbfrwq:1,2014-08-05T13:45:00Z,30.4162,-87.8228,2.37,5.9,1111122 
NERRS,ioos:station:NOAA.NERRS:wkbfrwq:1,2014-08-05T14:45:00Z,30.4162,-87.8228,2.31,5.4,1111122 
NERRS,ioos:station:NOAA.NERRS:wkbfrwq:1,2014-08-05T15:45:00Z,30.4162,-87.8228,2.28,5.4,1111122 
NERRS,ioos:station:NOAA.NERRS:wkbfrwq:1,2014-08-05T16:45:00Z,30.4162,-87.8228,2.23,5.5,1111122 
NERRS,ioos:station:NOAA.NERRS:wkbfrwq:1,2014-08-05T17:45:00Z,30.4162,-87.8228,2.15,5.3,1111122 
NERRS,ioos:station:NOAA.NERRS:wkbfrwq:1,2014-08-05T18:45:00Z,30.4162,-87.8228,2.08,5.4,1111122 
NERRS,ioos:station:NOAA.NERRS:wkbfrwq:1,2014-08-05T19:45:00Z,30.4162,-87.8228,2.03,4.3,1111122 
NERRS,ioos:station:NOAA.NERRS:wkbfrwq:1,2014-08-05T21:45:00Z,30.4162,-87.8228,1.94,4.6,1111122 
NERRS,ioos:station:NOAA.NERRS:wkbfrwq:1,2014-08-05T22:45:00Z,30.4162,-87.8228,1.93,5.0,1111122 
NERRS,ioos:station:NOAA.NERRS:wkbfrwq:1,2014-08-05T23:45:00Z,30.4162,-87.8228,1.93,5.2,1111122 
NERRS,ioos:station:NOAA.NERRS:wkbfrwq:1,2014-08-06T00:45:00Z,30.4162,-87.8228,1.95,4.7,1111122 
NERRS,ioos:station:NOAA.NERRS:wkbfrwq:1,2014-08-06T01:45:00Z,30.4162,-87.8228,1.99,4.5,1111122 
NERRS,ioos:station:NOAA.NERRS:wkbfrwq:1,2014-08-06T03:45:00Z,30.4162,-87.8228,2.15,4.6,1111122 
NERRS,ioos:station:NOAA.NERRS:wkbfrwq:1,2014-08-06T04:45:00Z,30.4162,-87.8228,2.17,4.9,1111122 
NERRS,ioos:station:NOAA.NERRS:wkbfrwq:1,2014-08-06T06:45:00Z,30.4162,-87.8228,2.24,5.2,1111122 
NERRS,ioos:station:NOAA.NERRS:wkbfrwq:1,2014-08-06T07:45:00Z,30.4162,-87.8228,2.31,5.2,1111122 
NERRS,ioos:station:NOAA.NERRS:wkbfrwq:1,2014-08-06T08:45:00Z,30.4162,-87.8228,2.37,5.5,1111122 
NERRS,ioos:station:NOAA.NERRS:wkbfrwq:1,2014-08-06T09:45:00Z,30.4162,-87.8228,2.41,5.8,1111122 
NERRS,ioos:station:NOAA.NERRS:wkbfrwq:1,2014-08-06T10:45:00Z,30.4162,-87.8228,2.45,6.0,1111122 
NERRS,ioos:station:NOAA.NERRS:wkbfrwq:1,2014-08-06T11:45:00Z,30.4162,-87.8228,2.45,6.6,1111122 
NERRS,ioos:station:NOAA.NERRS:wkbfrwq:1,2014-08-06T12:45:00Z,30.4162,-87.8228,2.44,6.3,1111122 
NERRS,ioos:station:NOAA.NERRS:wkbfrwq:1,2014-08-06T13:45:00Z,30.4162,-87.8228,2.42,6.1,1111122 
NERRS,ioos:station:NOAA.NERRS:wkbfrwq:1,2014-08-06T14:45:00Z,30.4162,-87.8228,2.39,6.3,1111122 
NERRS,ioos:station:NOAA.NERRS:wkbfrwq:1,2014-08-06T15:45:00Z,30.4162,-87.8228,2.33,6.2,1111122 
NERRS,ioos:station:NOAA.NERRS:wkbfrwq:1,2014-08-06T16:45:00Z,30.4162,-87.8228,2.24,5.4,1111122 
NERRS,ioos:station:NOAA.NERRS:wkbfrwq:1,2014-08-06T17:45:00Z,30.4162,-87.8228,2.17,5.3,1111122 
NERRS,ioos:station:NOAA.NERRS:wkbfrwq:1,2014-08-06T18:45:00Z,30.4162,-87.8228,2.11,5.5,1111122 
NERRS,ioos:station:NOAA.NERRS:wkbfrwq:1,2014-08-06T19:45:00Z,30.4162,-87.8228,2.05,5.1,1111122 
NERRS,ioos:station:NOAA.NERRS:wkbfrwq:1,2014-08-06T20:45:00Z,30.4162,-87.8228,2.0,4.9,1111122 
NERRS,ioos:station:NOAA.NERRS:wkbfrwq:1,2014-08-06T21:45:00Z,30.4162,-87.8228,1.96,4.1,1111122 
NERRS,ioos:station:NOAA.NERRS:wkbfrwq:1,2014-08-06T23:45:00Z,30.4162,-87.8228,1.91,4.8,1111122 
NERRS,ioos:station:NOAA.NERRS:wkbfrwq:1,2014-08-07T00:45:00Z,30.4162,-87.8228,1.93,4.6,1111122 
NERRS,ioos:station:NOAA.NERRS:wkbfrwq:1,2014-08-07T01:45:00Z,30.4162,-87.8228,1.97,4.6,1111122 
NERRS,ioos:station:NOAA.NERRS:wkbfrwq:1,2014-08-07T02:45:00Z,30.4162,-87.8228,2.0,3.8,1111122 
NERRS,ioos:station:NOAA.NERRS:wkbfrwq:1,2014-08-07T03:45:00Z,30.4162,-87.8228,2.05,4.3,1111122 
NERRS,ioos:station:NOAA.NERRS:wkbfrwq:1,2014-08-07T04:45:00Z,30.4162,-87.8228,2.12,4.4,1111122 
NERRS,ioos:station:NOAA.NERRS:wkbfrwq:1,2014-08-07T06:45:00Z,30.4162,-87.8228,2.21,5.7,1111122 
NERRS,ioos:station:NOAA.NERRS:wkbfrwq:1,2014-08-07T07:45:00Z,30.4162,-87.8228,2.26,6.4,1111122 
NERRS,ioos:station:NOAA.NERRS:wkbfrwq:1,2014-08-07T08:45:00Z,30.4162,-87.8228,2.33,6.4,1111122 
NERRS,ioos:station:NOAA.NERRS:wkbfrwq:1,2014-08-07T09:45:00Z,30.4162,-87.8228,2.38,6.4,1111122 
NERRS,ioos:station:NOAA.NERRS:wkbfrwq:1,2014-08-07T10:45:00Z,30.4162,-87.8228,2.41,6.5,1111122 
NERRS,ioos:station:NOAA.NERRS:wkbfrwq:1,2014-08-07T11:45:00Z,30.4162,-87.8228,2.45,6.6,1111122 
NERRS,ioos:station:NOAA.NERRS:wkbfrwq:1,2014-08-07T12:45:00Z,30.4162,-87.8228,2.47,7.1,1111122 
NERRS,ioos:station:NOAA.NERRS:wkbfrwq:1,2014-08-07T13:45:00Z,30.4162,-87.8228,2.46,7.1,1111122 
NERRS,ioos:station:NOAA.NERRS:wkbfrwq:1,2014-08-07T14:45:00Z,30.4162,-87.8228,2.44,6.9,1111122 
NERRS,ioos:station:NOAA.NERRS:wkbfrwq:1,2014-08-07T15:45:00Z,30.4162,-87.8228,2.43,7.3,1111122 
NERRS,ioos:station:NOAA.NERRS:wkbfrwq:1,2014-08-07T16:45:00Z,30.4162,-87.8228,2.36,6.9,1111122 
NERRS,ioos:station:NOAA.NERRS:wkbfrwq:1,2014-08-07T17:45:00Z,30.4162,-87.8228,2.25,6.5,1111122 
NERRS,ioos:station:NOAA.NERRS:wkbfrwq:1,2014-08-07T18:45:00Z,30.4162,-87.8228,2.16,5.7,1111122 
NERRS,ioos:station:NOAA.NERRS:wkbfrwq:1,2014-08-07T19:45:00Z,30.4162,-87.8228,2.1,4.6,1111122 
NERRS,ioos:station:NOAA.NERRS:wkbfrwq:1,2014-08-07T20:45:00Z,30.4162,-87.8228,2.06,5.1,1111122 
NERRS,ioos:station:NOAA.NERRS:wkbfrwq:1,2014-08-07T22:45:00Z,30.4162,-87.8228,1.96,4.9,1111122 
NERRS,ioos:station:NOAA.NERRS:wkbfrwq:1,2014-08-07T23:45:00Z,30.4162,-87.8228,1.91,3.4,1111122 
NERRS,ioos:station:NOAA.NERRS:wkbfrwq:1,2014-08-08T00:45:00Z,30.4162,-87.8228,1.88,4.6,1111122 
NERRS,ioos:station:NOAA.NERRS:wkbfrwq:1,2014-08-08T01:45:00Z,30.4162,-87.8228,1.87,5.0,1111122 
NERRS,ioos:station:NOAA.NERRS:wkbfrwq:1,2014-08-08T02:45:00Z,30.4162,-87.8228,1.89,5.6,1111122 
NERRS,ioos:station:NOAA.NERRS:wkbfrwq:1,2014-08-08T03:45:00Z,30.4162,-87.8228,1.95,3.8,1111122 
NERRS,ioos:station:NOAA.NERRS:wkbfrwq:1,2014-08-08T04:45:00Z,30.4162,-87.8228,2.04,3.7,1111122 
NERRS,ioos:station:NOAA.NERRS:wkbfrwq:1,2014-08-08T06:45:00Z,30.4162,-87.8228,2.12,3.7,1111122 
NERRS,ioos:station:NOAA.NERRS:wkbfrwq:1,2014-08-08T07:45:00Z,30.4162,-87.8228,2.17,5.2,1111122 
NERRS,ioos:station:NOAA.NERRS:wkbfrwq:1,2014-08-08T08:45:00Z,30.4162,-87.8228,2.26,5.4,1111122 
NERRS,ioos:station:NOAA.NERRS:wkbfrwq:1,2014-08-08T09:45:00Z,30.4162,-87.8228,2.34,6.3,1111122 
NERRS,ioos:station:NOAA.NERRS:wkbfrwq:1,2014-08-08T10:45:00Z,30.4162,-87.8228,2.41,6.4,1111122 
NERRS,ioos:station:NOAA.NERRS:wkbfrwq:1,2014-08-08T11:45:00Z,30.4162,-87.8228,2.44,6.3,1111122 
NERRS,ioos:station:NOAA.NERRS:wkbfrwq:1,2014-08-08T12:45:00Z,30.4162,-87.8228,2.49,6.4,1111122 
NERRS,ioos:station:NOAA.NERRS:wkbfrwq:1,2014-08-08T13:45:00Z,30.4162,-87.8228,2.54,6.9,1111122 
NERRS,ioos:station:NOAA.NERRS:wkbfrwq:1,2014-08-08T14:45:00Z,30.4162,-87.8228,2.57,7.7,1111122 
NERRS,ioos:station:NOAA.NERRS:wkbfrwq:1,2014-08-08T15:45:00Z,30.4162,-87.8228,2.52,7.2,1111122 
NERRS,ioos:station:NOAA.NERRS:wkbfrwq:1,2014-08-08T16:45:00Z,30.4162,-87.8228,2.43,5.6,1111122 
NERRS,ioos:station:NOAA.NERRS:wkbfrwq:1,2014-08-08T17:45:00Z,30.4162,-87.8228,2.37,5.2,1111122 
NERRS,ioos:station:NOAA.NERRS:wkbfrwq:1,2014-08-08T19:45:00Z,30.4162,-87.8228,2.19,4.3,1111122 
NERRS,ioos:station:NOAA.NERRS:wkbfrwq:1,2014-08-08T20:45:00Z,30.4162,-87.8228,2.13,4.4,1111122 
NERRS,ioos:station:NOAA.NERRS:wkbfrwq:1,2014-08-08T21:45:00Z,30.4162,-87.8228,2.06,5.1,1111122 
NERRS,ioos:station:NOAA.NERRS:wkbfrwq:1,2014-08-08T22:45:00Z,30.4162,-87.8228,2.01,4.4,1111122 
NERRS,ioos:station:NOAA.NERRS:wkbfrwq:1,2014-08-08T23:45:00Z,30.4162,-87.8228,1.96,3.5,1111122 
NERRS,ioos:station:NOAA.NERRS:wkbfrwq:1,2014-08-09T00:45:00Z,30.4162,-87.8228,1.91,3.3,1111122 
NERRS,ioos:station:NOAA.NERRS:wkbfrwq:1,2014-08-09T01:45:00Z,30.4162,-87.8228,1.89,4.1,1111122 
NERRS,ioos:station:NOAA.NERRS:wkbfrwq:1,2014-08-09T02:45:00Z,30.4162,-87.8228,1.88,4.5,1111122 
NERRS,ioos:station:NOAA.NERRS:wkbfrwq:1,2014-08-09T03:45:00Z,30.4162,-87.8228,1.9,4.8,1111122 
NERRS,ioos:station:NOAA.NERRS:wkbfrwq:1,2014-08-09T04:45:00Z,30.4162,-87.8228,1.97,3.5,1111122 
NERRS,ioos:station:NOAA.NERRS:wkbfrwq:1,2014-08-09T05:45:00Z,30.4162,-87.8228,2.07,3.9,1111122 
NERRS,ioos:station:NOAA.NERRS:wkbfrwq:1,2014-08-09T06:45:00Z,30.4162,-87.8228,2.13,3.9,1111122 
NERRS,ioos:station:NOAA.NERRS:wkbfrwq:1,2014-08-09T07:45:00Z,30.4162,-87.8228,2.15,4.2,1111122 
NERRS,ioos:station:NOAA.NERRS:wkbfrwq:1,2014-08-09T17:45:00Z,30.4162,-87.8228,2.46,5.4,1111122 
NERRS,ioos:station:NOAA.NERRS:wkbfrwq:1,2014-08-09T18:45:00Z,30.4162,-87.8228,2.38,5.0,1111122 
NERRS,ioos:station:NOAA.NERRS:wkbfrwq:1,2014-08-09T19:45:00Z,30.4162,-87.8228,2.29,4.3,1111122 
NERRS,ioos:station:NOAA.NERRS:wkbfrwq:1,2014-08-09T20:45:00Z,30.4162,-87.8228,2.24,4.2,1111122 
NERRS,ioos:station:NOAA.NERRS:wkbfrwq:1,2014-08-09T21:45:00Z,30.4162,-87.8228,2.16,3.6,1111122 
NERRS,ioos:station:NOAA.NERRS:wkbfrwq:1,2014-08-09T22:45:00Z,30.4162,-87.8228,2.1,3.2,1111122 
NERRS,ioos:station:NOAA.NERRS:wkbfrwq:1,2014-08-09T23:45:00Z,30.4162,-87.8228,2.08,3.8,1111122 
NERRS,ioos:station:NOAA.NERRS:wkbfrwq:1,2014-08-10T00:45:00Z,30.4162,-87.8228,2.03,3.1,1111122 
NERRS,ioos:station:NOAA.NERRS:wkbfrwq:1,2014-08-10T01:45:00Z,30.4162,-87.8228,1.94,2.5,1111122 
NERRS,ioos:station:NOAA.NERRS:wkbfrwq:1,2014-08-10T02:45:00Z,30.4162,-87.8228,1.92,2.5,1111122 
NERRS,ioos:station:NOAA.NERRS:wkbfrwq:1,2014-08-10T03:45:00Z,30.4162,-87.8228,2.01,3.7,1111122 
NERRS,ioos:station:NOAA.NERRS:wkbfrwq:1,2014-08-10T05:45:00Z,30.4162,-87.8228,1.84,2.1,1111122 
NERRS,ioos:station:NOAA.NERRS:wkbfrwq:1,2014-08-10T06:45:00Z,30.4162,-87.8228,1.92,3.0,1111122 
NERRS,ioos:station:NOAA.NERRS:wkbfrwq:1,2014-08-10T07:45:00Z,30.4162,-87.8228,2.06,3.1,1111122 
NERRS,ioos:station:NOAA.NERRS:wkbfrwq:1,2014-08-10T08:45:00Z,30.4162,-87.8228,2.18,3.5,1111122 
NERRS,ioos:station:NOAA.NERRS:wkbfrwq:1,2014-08-10T09:45:00Z,30.4162,-87.8228,2.18,3.5,1111122 
NERRS,ioos:station:NOAA.NERRS:wkbfrwq:1,2014-08-10T10:45:00Z,30.4162,-87.8228,2.2,3.3,1111122 
NERRS,ioos:station:NOAA.NERRS:wkbfrwq:1,2014-08-10T11:45:00Z,30.4162,-87.8228,2.31,3.8,1111122 
NERRS,ioos:station:NOAA.NERRS:wkbfrwq:1,2014-08-10T12:45:00Z,30.4162,-87.8228,2.42,4.1,1111122 
NERRS,ioos:station:NOAA.NERRS:wkbfrwq:1,2014-08-10T13:45:00Z,30.4162,-87.8228,2.49,4.3,1111122 
NERRS,ioos:station:NOAA.NERRS:wkbfrwq:1,2014-08-10T14:45:00Z,30.4162,-87.8228,2.51,4.6,1111122 
NERRS,ioos:station:NOAA.NERRS:wkbfrwq:1,2014-08-10T16:45:00Z,30.4162,-87.8228,2.58,5.0,1111122 
NERRS,ioos:station:NOAA.NERRS:wkbfrwq:1,2014-08-10T17:45:00Z,30.4162,-87.8228,2.54,4.0,1111122 
NERRS,ioos:station:NOAA.NERRS:wkbfrwq:1,2014-08-10T18:45:00Z,30.4162,-87.8228,2.48,3.7,1111122 
NERRS,ioos:station:NOAA.NERRS:wkbfrwq:1,2014-08-10T20:45:00Z,30.4162,-87.8228,2.31,3.3,1111122 
NERRS,ioos:station:NOAA.NERRS:wkbfrwq:1,2014-08-10T21:45:00Z,30.4162,-87.8228,2.24,3.1,1111122 
NERRS,ioos:station:NOAA.NERRS:wkbfrwq:1,2014-08-10T22:45:00Z,30.4162,-87.8228,2.16,2.8,1111122 
NERRS,ioos:station:NOAA.NERRS:wkbfrwq:1,2014-08-10T23:45:00Z,30.4162,-87.8228,2.1,2.7,1111122 
NERRS,ioos:station:NOAA.NERRS:wkbfrwq:1,2014-08-11T00:45:00Z,30.4162,-87.8228,2.05,2.6,1111122 
NERRS,ioos:station:NOAA.NERRS:wkbfrwq:1,2014-08-11T01:45:00Z,30.4162,-87.8228,2.01,2.4,1111122 
NERRS,ioos:station:NOAA.NERRS:wkbfrwq:1,2014-08-11T02:45:00Z,30.4162,-87.8228,2.02,2.3,1111122 
NERRS,ioos:station:NOAA.NERRS:wkbfrwq:1,2014-08-11T03:45:00Z,30.4162,-87.8228,2.02,3.8,1111122 
NERRS,ioos:station:NOAA.NERRS:wkbfrwq:1,2014-08-11T04:45:00Z,30.4162,-87.8228,2.01,2.0,1111122 
NERRS,ioos:station:NOAA.NERRS:wkbfrwq:1,2014-08-11T05:45:00Z,30.4162,-87.8228,2.03,3.5,1111122 
NERRS,ioos:station:NOAA.NERRS:wkbfrwq:1,2014-08-11T06:45:00Z,30.4162,-87.8228,2.0,3.7,1111122 
NERRS,ioos:station:NOAA.NERRS:wkbfrwq:1,2014-08-11T07:45:00Z,30.4162,-87.8228,1.96,1.9,1111122 
NERRS,ioos:station:NOAA.NERRS:wkbfrwq:1,2014-08-11T09:45:00Z,30.4162,-87.8228,2.17,4.0,1111122 
NERRS,ioos:station:NOAA.NERRS:wkbfrwq:1,2014-08-11T10:45:00Z,30.4162,-87.8228,2.26,5.2,1111122 
NERRS,ioos:station:NOAA.NERRS:wkbfrwq:1,2014-08-11T11:45:00Z,30.4162,-87.8228,2.26,4.6,1111122 
NERRS,ioos:station:NOAA.NERRS:wkbfrwq:1,2014-08-11T12:45:00Z,30.4162,-87.8228,2.27,5.6,1111122 
NERRS,ioos:station:NOAA.NERRS:wkbfrwq:1,2014-08-11T13:45:00Z,30.4162,-87.8228,2.34,5.7,1111122 
NERRS,ioos:station:NOAA.NERRS:wkbfrwq:1,2014-08-11T14:45:00Z,30.4162,-87.8228,2.43,5.7,1111122 
NERRS,ioos:station:NOAA.NERRS:wkbfrwq:1,2014-08-11T15:45:00Z,30.4162,-87.8228,2.43,5.6,1111122 
NERRS,ioos:station:NOAA.NERRS:wkbfrwq:1,2014-08-11T16:45:00Z,30.4162,-87.8228,2.42,5.6,1111122 
NERRS,ioos:station:NOAA.NERRS:wkbfrwq:1,2014-08-11T17:45:00Z,30.4162,-87.8228,2.44,7.0,1111122 
NERRS,ioos:station:NOAA.NERRS:wkbfrwq:1,2014-08-11T18:45:00Z,30.4162,-87.8228,2.45,7.6,1111122 
NERRS,ioos:station:NOAA.NERRS:wkbfrwq:1,2014-08-11T19:45:00Z,30.4162,-87.8228,2.4,7.2,1111122 
NERRS,ioos:station:NOAA.NERRS:wkbfrwq:1,2014-08-11T22:45:00Z,30.4162,-87.8228,2.22,6.2,1111122 
NERRS,ioos:station:NOAA.NERRS:wkbfrwq:1,2014-08-11T23:45:00Z,30.4162,-87.8228,2.16,4.8,1111122 
NERRS,ioos:station:NOAA.NERRS:wkbfrwq:1,2014-08-12T00:45:00Z,30.4162,-87.8228,2.13,7.1,1111122 
NERRS,ioos:station:NOAA.NERRS:wkbfrwq:1,2014-08-12T01:45:00Z,30.4162,-87.8228,2.1,6.9,1111122 
NERRS,ioos:station:NOAA.NERRS:wkbfrwq:1,2014-08-12T02:45:00Z,30.4162,-87.8228,2.0,3.7,1111122 
NERRS,ioos:station:NOAA.NERRS:wkbfrwq:1,2014-08-12T03:45:00Z,30.4162,-87.8228,1.97,3.1,1111122 
NERRS,ioos:station:NOAA.NERRS:wkbfrwq:1,2014-08-12T04:45:00Z,30.4162,-87.8228,1.98,5.5,1111122 
NERRS,ioos:station:NOAA.NERRS:wkbfrwq:1,2014-08-12T06:45:00Z,30.4162,-87.8228,2.13,5.6,1111122 
NERRS,ioos:station:NOAA.NERRS:wkbfrwq:1,2014-08-12T07:45:00Z,30.4162,-87.8228,2.1,5.8,1111122 
NERRS,ioos:station:NOAA.NERRS:wkbfrwq:1,2014-08-12T08:45:00Z,30.4162,-87.8228,2.14,6.4,1111122 
NERRS,ioos:station:NOAA.NERRS:wkbfrwq:1,2014-08-12T09:45:00Z,30.4162,-87.8228,2.17,6.0,1111122 
NERRS,ioos:station:NOAA.NERRS:wkbfrwq:1,2014-08-12T10:45:00Z,30.4162,-87.8228,2.13,5.4,1111122 
NERRS,ioos:station:NOAA.NERRS:wkbfrwq:1,2014-08-12T11:45:00Z,30.4162,-87.8228,2.09,5.7,1111122 
NERRS,ioos:station:NOAA.NERRS:wkbfrwq:1,2014-08-12T13:45:00Z,30.4162,-87.8228,2.2,5.4,1111122 
NERRS,ioos:station:NOAA.NERRS:wkbfrwq:1,2014-08-12T14:45:00Z,30.4162,-87.8228,2.27,5.8,1111122 
NERRS,ioos:station:NOAA.NERRS:wkbfrwq:1,2014-08-12T15:45:00Z,30.4162,-87.8228,2.32,6.4,1111122 
NERRS,ioos:station:NOAA.NERRS:wkbfrwq:1,2014-08-12T16:45:00Z,30.4162,-87.8228,2.36,7.4,1111122 
NERRS,ioos:station:NOAA.NERRS:wkbfrwq:1,2014-08-12T17:45:00Z,30.4162,-87.8228,2.37,7.5,1111122 
NERRS,ioos:station:NOAA.NERRS:wkbfrwq:1,2014-08-12T18:45:00Z,30.4162,-87.8228,2.39,7.8,1111122 